Погода в Зырянском

Россия / Томская область     56°49′44″N   86°37′31″E
темп.,
°C
ветер,
м/с
пор.,
м/с
влажн.,
%
обл.,
%
осадки,
мм/ч
давл.,
гПа
погр.,
м
29 января, сб
сб2901:00−17ю249776 0.0 103274
04:00−21ююз2410045 0.0 103343
07:00−22ююз249960 0.0 103340
10:00−19ююз2598100 0.0 103376
13:00−14юз259270 0.0 1032190
16:00−13ю23945 0.0 103285
19:00−19ююз229956 0.0 103323
22:00−20ююз2210026 0.0 103420
30 января, вс
вс3001:00−21ююз22100100 0.0 103420
04:00−22ююз2210060 0.0 103517
07:00−23ю2210056 0.0 103511
10:00−23ююв2210053 0.0 103516
13:00−13юв229263 0.0 1033125
16:00−12вюв239479 0.0 103355
19:00−17юв2498100 0.0 103241
22:00−18юв2497100 0.0 103246
31 января, пн
пн3101:00−20юв229852 0.0 103231
04:00−21юв229919 0.0 103231
07:00−22юв2210052 0.0 103229
10:00−20ююв2310058 0.0 103238
13:00−10ююв23855 0.0 1031109
16:00−8юв23905 0.0 103158
19:00−14ююв229622 0.0 103233
22:00−16ю229730 0.0 103227
1 февраля, вт
вт101:00−18ю229753 0.0 103221
04:00−18ю229890 0.0 103330
07:00−17ю2498100 0.0 103347
10:00−17ю249794 0.0 103457
13:00−10ююз3691100 0.0 1034197
16:00−9ююз3693100 0.0 1035272
19:00−12ю3496100 0.0 103659
22:00−13ююз2596100 0.0 103678
2 февраля, ср
ср201:00−16ююз2297100 0.0 103731
04:00−17ююз2298100 0.0 103731
07:00−16ю2397100 0.0 103748
10:00−14ююз249787 0.0 103773
13:00−10ююз249378 0.1 1036184
16:00−9ю239465 0.0 1036128
19:00−11ю239878 0.1 103652
22:00−11ююз239779 0.1 103664